Location: Lafig�re
(44.4503°N, 4.0357°E)
Time: 14:22:15
(UTC+00:00)

Vanguard 3 - All Passes

Search period start: 25 January 2021 00:00
Search period end: 04 February 2021 00:00
Orbit: 508 x 3261 km, 33.3° (Epoch: 24 January)

Date Brightness Start Highest point End Pass type
(mag) Time Alt. Az. Time Alt. Az. Time Alt. Az.
25 Jan - 02:58:14 10° SSW 03:03:30 29° SSE 03:11:41 10° E visible
25 Jan - 05:07:35 10° WSW 05:15:08 45° S 05:28:02 10° ESE visible
25 Jan - 07:18:35 10° W 07:28:19 39° SSW 07:43:21 10° SE daylight
25 Jan - 09:32:24 10° WSW 09:42:10 22° SSW 09:54:25 10° S daylight
26 Jan - 01:46:42 10° S 01:50:06 16° SE 01:54:31 10° ESE visible
26 Jan - 03:54:38 10° SW 04:00:46 39° SSE 04:11:02 10° ESE visible
26 Jan - 06:04:52 10° WSW 06:13:09 42° S 06:26:51 10° SE visible
26 Jan - 08:16:55 10° WSW 08:26:39 28° SSW 08:40:16 10° SSE daylight
26 Jan - 10:37:04 10° SW 10:40:20 11° SW 10:43:46 10° SSW daylight
27 Jan - 02:42:08 10° SW 02:46:56 28° SSE 02:54:16 10° ESE visible
27 Jan - 04:51:34 10° WSW 04:58:25 42° S 05:10:04 10° ESE visible
27 Jan - 07:02:35 10° WSW 07:11:19 34° SSW 07:24:47 10° SE daylight
27 Jan - 09:16:57 10° WSW 09:24:55 18° SSW 09:34:43 10° S daylight
28 Jan - 01:30:27 10° S 01:33:33 16° SSE 01:37:32 10° ESE visible
28 Jan - 03:38:39 10° SW 03:44:12 36° S 03:53:21 10° ESE visible
28 Jan - 05:48:53 10° WSW 05:56:21 37° S 06:08:36 10° SE visible
28 Jan - 08:01:09 10° WSW 08:09:34 24° SSW 08:21:12 10° SSE daylight
29 Jan - 02:26:06 10° SW 02:30:27 27° SSE 02:36:57 10° ESE visible
29 Jan - 04:35:37 10° WSW 04:41:49 38° S 04:52:08 10° ESE visible
29 Jan - 06:46:42 10° WSW 06:54:26 29° SSW 07:06:08 10° SSE daylight
29 Jan - 09:02:21 10° WSW 09:07:48 13° SSW 09:14:10 10° S daylight
30 Jan - 01:14:13 10° S 01:17:04 16° SSE 01:20:39 10° ESE visible
30 Jan - 03:22:41 10° SW 03:27:43 34° S 03:35:47 10° ESE visible
30 Jan - 05:33:00 10° WSW 05:39:40 32° S 05:50:20 10° SE visible
30 Jan - 07:45:42 10° WSW 07:52:37 19° SSW 08:01:48 10° S daylight
31 Jan - 02:10:06 10° SW 02:14:03 26° SSE 02:19:45 10° ESE visible
31 Jan - 04:19:45 10° WSW 04:25:18 33° S 04:34:16 10° SE visible
31 Jan - 06:31:03 10° WSW 06:37:41 24° SSW 06:47:22 10° SSE visible
01 Feb - 00:58:02 10° SSW 01:00:40 16° SSE 01:03:52 10° ESE night (unlit)
01 Feb - 03:06:48 10° SW 03:11:20 30° S 03:18:19 10° ESE visible
01 Feb - 05:17:15 10° WSW 05:23:06 27° SSW 05:32:03 10° SE visible
01 Feb - 07:30:53 10° SW 07:35:48 14° SSW 07:41:52 10° S daylight
02 Feb - 01:54:07 10° SW 01:57:43 24° SSE 02:02:39 10° ESE visible
02 Feb - 04:03:57 10° WSW 04:08:52 28° S 04:16:26 10° SE visible
02 Feb - 06:15:39 10° WSW 06:21:03 18° SSW 06:28:23 10° SSE visible
03 Feb - 00:41:51 10° SSW 00:44:19 16° SSE 00:47:13 10° ESE night (unlit)
03 Feb - 02:50:57 10° SW 02:55:00 27° S 03:00:55 10° ESE visible
03 Feb - 05:01:39 10° WSW 05:06:36 22° SSW 05:13:44 10° SSE visible
